Regional Weather Roundup
Issued by NWS

Home | Current Version | Previous Version | Graphics & Text | Print | Product List | Glossary On
Versions: 1 2 3 4 5 6 7 8 9 10 11 12 13 14 15 16 17 18 19 20 21 22 23 24 25 26 27 28 29 30 31 32 33 34 35 36 37 38 39 40 41 42 43 44 45 46 47 48 49 50
000
ASUS43 KDTX 212110
RWRMI
MICHIGAN HOURLY REGIONAL WEATHER ROUNDUP
NATIONAL WEATHER SERVICE DETROIT/PONTIAC MI
400 PM EST SUN DEC 21 2014

NOTE: "FAIR" INDICATES FEW OR NO CLOUDS BELOW 12,000 FEET WITH NO
SIGNIFICANT WEATHER AND/OR OBSTRUCTION TO VISIBILITY.

MIZ047>049-052>055-059>063-066>070-074>076-081>083-212200-
SOUTHEAST LOWER MICHIGAN

CITY           SKY/WX    TMP DP  RH WIND       PRES   REMARKS
ADRIAN         CLOUDY    33  27  78 S8        30.22S WCI  26
ALMA           CLOUDY    33  28  80 S6        30.18S WCI  28
ANN ARBOR      CLOUDY    33  25  72 S5        30.22R WCI  29
BAD AXE        CLOUDY    32  26  80 S5        30.23R WCI  27
CARO           CLOUDY    33  23  67 SE7       30.21S WCI  27
DETROIT CITY   PTCLDY    34  22  61 S10       30.25R WCI  26
DETROIT        CLOUDY    32  22  66 SE5       30.25R WCI  27
FLINT          CLOUDY    34  23  64 S10       30.21S WCI  26
GROSSE ILE     MOCLDY    32  25  74 SE7       30.24R WCI  26
HILLSDALE      CLOUDY    33  27  79 SE6       30.17S WCI  27
HOWELL         CLOUDY    32  27  81 SE8       30.20R WCI  25

CITY           SKY/WX    TMP DP  RH WIND       PRES   REMARKS
JACKSON        CLOUDY    33  26  75 SE8       30.19R HAZE    WCI  26
LAMBERTVILLE   CLOUDY    36  27  69 SE3       30.23S
LANSING        CLOUDY    33  25  72 S7        30.19S WCI  27
LAPEER         CLOUDY    33  24  70 S5        30.22R WCI  29
MASON          CLOUDY    32  27  80 SE6       30.19S WCI  26
MONROE         CLOUDY    34  25  69 E6        30.22S WCI  29
MT. CLEMENS    MOCLDY    33  26  73 S9        30.22R WCI  26
PONTIAC        CLOUDY    33  23  66 S8        30.20R WCI  26
PORT HOPE        N/A     33  24  69 S5        30.22R WCI  29
PORT HURON     CLEAR     32  23  69 S7        30.24R WCI  26
TRI CITIES     CLOUDY    35  27  72 S8        30.21R WCI  29
TROY           CLOUDY    36  24  62 S7        30.25R WCI  30
SAGINAW HB     CLOUDY    34  28  80 SE7       30.21S WCI  28
$$
MIZ043>046-050>051-056>058-064>065-071>073-077>080-212200-
SOUTHWEST LOWER MICHIGAN

CITY           SKY/WX    TMP DP  RH WIND       PRES   REMARKS
BATTLE CREEK   CLOUDY    35  24  64 S10       30.17S WCI  27
BENTON HARBOR  CLOUDY    35  28  75 SE10      30.14S WCI  27
BIG RAPIDS     CLOUDY    32  29  87 SE8       30.13S FOG     WCI  25
COLDWATER      CLOUDY    33  25  72 MISG      30.17F
FREMONT        CLOUDY    33  28  81 S6        30.13S HAZE    WCI  27
HOLLAND        CLOUDY    36  28  73 SE9       30.15S WCI  29
GRAND RAPIDS   MOCLDY    34  26  72 S9        30.16S WCI  27
IONIA          CLOUDY    34  28  79 S9        30.16S WCI  27
KALAMAZOO      PTCLDY    35  25  66 S7        30.16F WCI  29
LUDINGTON      CLOUDY    36  31  83 S9        30.11S HAZE    WCI  29
MARSHALL       CLOUDY    32  25  73 S9        30.17S WCI  25
MOUNT PLEASANT CLOUDY    33  27  77 SE6       30.17S HAZE    WCI  28
MUSKEGON       CLOUDY    35  27  72 SE7       30.14F WCI  29
SOUTH HAVEN    CLOUDY    37  28  72 SE8       30.14S WCI  30
$$
MIZ016>042-212200-
NORTHERN LOWER MICHIGAN

CITY           SKY/WX    TMP DP  RH WIND       PRES   REMARKS
ALPENA         CLOUDY    31  28  89 S9        30.19S FOG     WCI  23
BEAVER ISLAND  CLOUDY    34  32  92 SE3       30.10R FOG
BELLAIRE       CLOUDY    34  29  84 SE3       30.13S HAZE
CADILLAC       CLOUDY    31  27  85 SE8       30.10S WCI  23
CHARLEVOIX     CLOUDY    33  30  91 SE8       30.14S FOG     WCI  25
FRANKFORT      CLOUDY    33  30  88 S8        30.10S WCI  27
GAYLORD        CLOUDY    30  27  88 S9        30.11S FOG     WCI  22
GRAYLING       CLOUDY    31  28  90 SE7       30.14S FOG     WCI  24
HARBOR SPRINGS CLOUDY    33  29  85 NE6       30.12F WCI  27
HOUGHTON LAKE  CLOUDY    30  26  85 SE6       30.15S FOG     WCI  24
MANISTEE       CLOUDY    34  27  75 S7        30.11S WCI  28
OSCODA         CLOUDY    32  28  86 S5        30.20S WCI  27
PELLSTON       CLOUDY    32  28  85 SE7       30.13F WCI  26
ROGERS CITY    CLOUDY    31  29  92 S7        30.17S WCI  25
TRAVERSE CITY  CLOUDY    35  28  75 S7        30.11S WCI  29
$$
MIZ007>008-015-212200-
EASTERN UPPER MICHIGAN

CITY           SKY/WX    TMP DP  RH WIND       PRES   REMARKS
KINROSS        CLOUDY    30  30 100 SE13      30.13S WCI  20
MACKINAC ISLAN CLOUDY    32  28  87 SE7       30.12S WCI  25
NEWBERRY       CLOUDY    30  29  98 SE12      30.08S FOG     WCI  20
S. S. MARIE    CLOUDY    30  24  78 SE9       30.14R WCI  22
MUNISING         N/A     37  32  82 S9        30.00F WCI  30
$$
MIZ004>006-011>014-085-212200-
CENTRAL UPPER MICHIGAN

CITY           SKY/WX    TMP DP  RH WIND       PRES   REMARKS
MANISTIQUE     DRIZZLE   35  35  99 S12G17    30.05F WCI  27
ESCANABA       CLOUDY    36  32  87 S9        30.02S WCI  29
MENOMINEE      CLOUDY    36  30  80 S9        30.01S WCI  29
SAWYER-GWINN   LGT SNOW  32  30  93 S15G22    29.96F WCI  22
$$
MIZ001>003-009>011-084-212200-
WESTERN UPPER MICHIGAN

CITY           SKY/WX    TMP DP  RH WIND       PRES   REMARKS
IRON MOUNTAIN  LGT SNOW  31  29  92 SE9       29.95F FOG     WCI  23
HOUGHTON       CLOUDY    33  28  81 SE12      29.89F WCI  24
COPPER HARBOR    N/A     35  29  78 S9        29.93S WCI  28
IRONWOOD       CLOUDY    34  30  86 S12       29.81S WCI  25
$$

ABBREVIATIONS USED IN REMARKS
   TC - TEMPERATURE IN CELSIUS
  WCI - WIND CHILL INDEX
   HX - HEAT INDEX
  VSB - VISIBILITY



USA.gov is the U.S. government's official web portal to all federal, state and local government web resources and services.